IGO1201 VABB-OBBI

Flight info

Callsign IGO1201
Flight time N/A
Altitude 36000
Route RAXE2A SAKUN V2 SUGID N571 MENSA DCT EGTAG P699 ORMID M556 ORDIG ORDIG1
Aircraft A320/M-SDE3FGHIRWY/LB1

Departure

Time 2026-05-06 19:08
Airport Chhatrapati Shivaji Maharaj International Airport (VABB)

Arrival

Time N/A
Airport Bahrain International Airport (OBBI)
Time Latitude Longitude Altitude Speed Heading
2026-05-06 18:24 19.09419 72.87280 49 ft 0 kts 299°
2026-05-06 18:30 19.09459 72.87341 46 ft 0 kts 318°
2026-05-06 18:57 19.09439 72.87360 49 ft 4 kts 322°
2026-05-06 18:58 19.09417 72.87376 46 ft 4 kts 331°
2026-05-06 18:58 19.09392 72.87387 47 ft 4 kts 358°
2026-05-06 18:58 19.09376 72.87383 45 ft 0 kts 47°
2026-05-06 19:03 19.09382 72.87390 47 ft 4 kts 47°
2026-05-06 19:03 19.09418 72.87433 49 ft 10 kts 53°
2026-05-06 19:03 19.09402 72.87500 48 ft 11 kts 130°
2026-05-06 19:04 19.09351 72.87563 49 ft 12 kts 130°
2026-05-06 19:04 19.09294 72.87634 49 ft 13 kts 131°
2026-05-06 19:04 19.09268 72.87663 49 ft 1 kts 139°
2026-05-06 19:04 19.09234 72.87673 49 ft 10 kts 178°
2026-05-06 19:05 19.09162 72.87677 47 ft 10 kts 157°
2026-05-06 19:05 19.09142 72.87741 49 ft 11 kts 91°
2026-05-06 19:05 19.09106 72.87804 49 ft 11 kts 170°
2026-05-06 19:05 19.09054 72.87857 46 ft 12 kts 90°
2026-05-06 19:06 19.09062 72.87950 48 ft 13 kts 86°
2026-05-06 19:06 19.09056 72.88041 46 ft 9 kts 133°
2026-05-06 19:06 19.09011 72.88054 48 ft 0 kts 176°
2026-05-06 19:06 19.08996 72.88054 48 ft 6 kts 180°
2026-05-06 19:07 19.08938 72.88053 47 ft 10 kts 181°
2026-05-06 19:07 19.08888 72.88016 47 ft 9 kts 265°
2026-05-06 19:07 19.08889 72.87997 47 ft 3 kts 270°
2026-05-06 19:07 19.08887 72.87819 48 ft 56 kts 269°
2026-05-06 19:08 19.08879 72.87187 51 ft 113 kts 269°
2026-05-06 19:08 19.08866 72.86192 48 ft 157 kts 270°
2026-05-06 19:08 19.08860 72.84923 285 ft 176 kts 271°
2026-05-06 19:08 19.08856 72.83602 798 ft 184 kts 271°
2026-05-06 19:09 19.08841 72.82248 1411 ft 183 kts 272°
2026-05-06 19:09 19.08818 72.80920 1947 ft 187 kts 271°
2026-05-06 19:09 19.08794 72.79472 2133 ft 208 kts 272°
2026-05-06 19:09 19.08767 72.77861 2269 ft 231 kts 270°
2026-05-06 19:10 19.08735 72.76076 2495 ft 255 kts 271°
2026-05-06 19:10 19.08667 72.74145 2962 ft 267 kts 272°
2026-05-06 19:10 19.08777 72.72167 3564 ft 272 kts 278°
2026-05-06 19:10 19.09028 72.70176 4262 ft 274 kts 280°
2026-05-06 19:11 19.09314 72.68179 4974 ft 276 kts 280°
2026-05-06 19:11 19.09593 72.66192 5694 ft 277 kts 278°
2026-05-06 19:11 19.09856 72.64172 6420 ft 278 kts 277°
2026-05-06 19:11 19.10101 72.62136 7055 ft 282 kts 276°
2026-05-06 19:12 19.10336 72.60061 7647 ft 287 kts 275°
2026-05-06 19:12 19.10569 72.57943 8244 ft 292 kts 275°
2026-05-06 19:12 19.10802 72.55786 8829 ft 297 kts 275°
2026-05-06 19:12 19.11034 72.53599 9443 ft 302 kts 275°
2026-05-06 19:13 19.11271 72.51367 9952 ft 311 kts 275°
2026-05-06 19:13 19.11520 72.49021 10078 ft 332 kts 275°
2026-05-06 19:13 19.11782 72.46519 10241 ft 350 kts 275°
2026-05-06 19:13 19.12051 72.43971 10697 ft 355 kts 275°
2026-05-06 19:14 19.12328 72.41369 11239 ft 358 kts 275°
2026-05-06 19:14 19.12609 72.38739 11797 ft 361 kts 275°
2026-05-06 19:14 19.12891 72.36091 12371 ft 363 kts 275°
2026-05-06 19:14 19.13177 72.33430 12940 ft 365 kts 275°
2026-05-06 19:15 19.13462 72.30761 13496 ft 367 kts 275°
2026-05-06 19:15 19.13748 72.28069 14022 ft 369 kts 275°
2026-05-06 19:15 19.14031 72.25366 14543 ft 370 kts 276°
2026-05-06 19:15 19.14314 72.22665 15069 ft 371 kts 276°
2026-05-06 19:16 19.14597 72.19951 15585 ft 372 kts 276°
2026-05-06 19:16 19.14882 72.17239 16100 ft 372 kts 276°
2026-05-06 19:16 19.15164 72.14561 16602 ft 373 kts 277°
2026-05-06 19:16 19.15468 72.11819 17095 ft 374 kts 280°
2026-05-06 19:17 19.16116 72.09158 17541 ft 375 kts 291°
2026-05-06 19:17 19.17233 72.06655 17998 ft 377 kts 298°
2026-05-06 19:17 19.18479 72.04211 18401 ft 379 kts 298°
2026-05-06 19:17 19.19728 72.01741 18809 ft 381 kts 298°
2026-05-06 19:18 19.20972 71.99271 19212 ft 382 kts 298°
2026-05-06 19:18 19.22219 71.96786 19631 ft 383 kts 298°
2026-05-06 19:18 19.23452 71.94327 20034 ft 384 kts 298°
2026-05-06 19:18 19.24707 71.91826 20437 ft 385 kts 298°
2026-05-06 19:19 19.25962 71.89326 20839 ft 386 kts 298°
2026-05-06 19:19 19.27226 71.86811 21242 ft 387 kts 298°
2026-05-06 19:19 19.28492 71.84291 21632 ft 388 kts 298°
2026-05-06 19:19 19.29757 71.81771 21995 ft 389 kts 298°
2026-05-06 19:20 19.31031 71.79235 22357 ft 390 kts 298°
2026-05-06 19:20 19.32308 71.76691 22717 ft 391 kts 298°
2026-05-06 19:20 19.33585 71.74149 23065 ft 392 kts 298°
2026-05-06 19:20 19.34851 71.71623 23405 ft 394 kts 298°
2026-05-06 19:21 19.36131 71.69063 23682 ft 395 kts 298°
2026-05-06 19:21 19.37421 71.66483 23928 ft 397 kts 298°
2026-05-06 19:21 19.38716 71.63892 24174 ft 399 kts 298°
2026-05-06 19:21 19.40016 71.61298 24418 ft 401 kts 298°
2026-05-06 19:22 19.41329 71.58683 24656 ft 403 kts 298°
2026-05-06 19:22 19.42627 71.56088 24914 ft 405 kts 298°
2026-05-06 19:22 19.43962 71.53418 25157 ft 407 kts 298°
2026-05-06 19:22 19.45273 71.50796 25388 ft 409 kts 298°
2026-05-06 19:23 19.46601 71.48133 25634 ft 411 kts 298°
2026-05-06 19:23 19.47937 71.45447 25878 ft 412 kts 298°
2026-05-06 19:23 19.49280 71.42749 26118 ft 414 kts 298°
2026-05-06 19:23 19.50624 71.40047 26355 ft 416 kts 298°
2026-05-06 19:24 19.51981 71.37325 26582 ft 418 kts 298°
2026-05-06 19:24 19.53346 71.34591 26805 ft 420 kts 298°
2026-05-06 19:24 19.54712 71.31854 27035 ft 422 kts 298°
2026-05-06 19:24 19.56067 71.29128 27266 ft 424 kts 298°
2026-05-06 19:25 19.57444 71.26357 27487 ft 426 kts 298°
2026-05-06 19:25 19.58826 71.23574 27717 ft 427 kts 298°
2026-05-06 19:25 19.60208 71.20780 27953 ft 429 kts 296°
2026-05-06 19:25 19.61339 71.17839 28186 ft 432 kts 289°
2026-05-06 19:26 19.62277 71.14813 28454 ft 433 kts 289°
2026-05-06 19:26 19.63220 71.11790 28798 ft 432 kts 289°
2026-05-06 19:26 19.64169 71.08765 29166 ft 431 kts 289°
2026-05-06 19:26 19.65115 71.05754 29520 ft 431 kts 289°
2026-05-06 19:27 19.66049 71.02775 29871 ft 431 kts 289°
2026-05-06 19:27 19.66990 70.99769 30176 ft 430 kts 289°
2026-05-06 19:27 19.67931 70.96747 30478 ft 430 kts 289°
2026-05-06 19:27 19.68860 70.93761 30793 ft 429 kts 289°
2026-05-06 19:28 19.69802 70.90736 31107 ft 429 kts 289°
2026-05-06 19:28 19.70735 70.87741 31429 ft 428 kts 289°
2026-05-06 19:28 19.71671 70.84737 31749 ft 427 kts 289°
2026-05-06 19:28 19.72599 70.81751 32080 ft 427 kts 289°
2026-05-06 19:29 19.73529 70.78758 32416 ft 426 kts 289°
2026-05-06 19:29 19.74442 70.75809 32742 ft 425 kts 289°
2026-05-06 19:29 19.75364 70.72834 33062 ft 425 kts 289°
2026-05-06 19:29 19.76287 70.69855 33382 ft 424 kts 289°
2026-05-06 19:30 19.77208 70.66890 33682 ft 424 kts 289°
2026-05-06 19:30 19.78130 70.63923 33952 ft 423 kts 288°
2026-05-06 19:30 19.79049 70.60954 34211 ft 422 kts 288°
2026-05-06 19:30 19.79963 70.57994 34464 ft 422 kts 288°
2026-05-06 19:31 19.80868 70.55048 34711 ft 421 kts 288°
2026-05-06 19:31 19.81778 70.52090 34961 ft 420 kts 288°
2026-05-06 19:31 19.83582 70.46247 35448 ft 419 kts 288°
2026-05-06 19:32 19.84497 70.43296 35684 ft 419 kts 288°
2026-05-06 19:32 19.85403 70.40352 35785 ft 420 kts 287°
2026-05-06 19:32 19.86021 70.37311 35812 ft 424 kts 276°
2026-05-06 19:32 19.86108 70.34172 35812 ft 429 kts 266°
2026-05-06 19:33 19.84754 70.28034 35810 ft 433 kts 253°
2026-05-06 19:33 19.82827 70.21954 35808 ft 434 kts 253°
2026-05-06 19:34 19.80900 70.15880 35809 ft 434 kts 253°
2026-05-06 19:34 19.78978 70.09801 35815 ft 435 kts 253°
2026-05-06 19:35 19.77056 70.03716 35816 ft 435 kts 253°
2026-05-06 19:35 19.75132 69.97659 35816 ft 435 kts 253°
2026-05-06 19:36 19.73197 69.91571 35821 ft 436 kts 253°
2026-05-06 19:36 19.71260 69.85484 35826 ft 435 kts 253°
2026-05-06 19:37 19.69324 69.79399 35822 ft 435 kts 253°
2026-05-06 19:37 19.67384 69.73319 35822 ft 435 kts 252°
2026-05-06 19:38 19.65451 69.67269 35820 ft 435 kts 252°
2026-05-06 19:38 19.63505 69.61188 35823 ft 436 kts 252°
2026-05-06 19:39 19.61551 69.55105 35822 ft 436 kts 252°
2026-05-06 19:39 19.59598 69.49007 35824 ft 436 kts 252°
2026-05-06 19:40 19.57657 69.42963 35822 ft 436 kts 252°
2026-05-06 19:40 19.56399 69.36723 35825 ft 434 kts 270°
2026-05-06 19:41 19.56600 69.33551 35821 ft 432 kts 281°
2026-05-06 19:41 19.57375 69.30472 35818 ft 432 kts 291°
2026-05-06 19:41 19.60021 69.24762 35823 ft 432 kts 296°
2026-05-06 19:42 19.62737 69.19112 35822 ft 433 kts 296°
2026-05-06 19:42 19.65458 69.13419 35817 ft 433 kts 296°
2026-05-06 19:43 19.68188 69.07724 35815 ft 433 kts 296°
2026-05-06 19:43 19.70925 69.02026 35825 ft 434 kts 296°
2026-05-06 19:44 19.73659 68.96309 35826 ft 434 kts 296°
2026-05-06 19:44 19.76370 68.90636 35829 ft 434 kts 296°
2026-05-06 19:45 19.79101 68.84930 35826 ft 434 kts 296°
2026-05-06 19:45 19.81826 68.79219 35831 ft 434 kts 296°
2026-05-06 19:46 19.84560 68.73495 35834 ft 434 kts 296°
2026-05-06 19:46 19.87265 68.67813 35836 ft 434 kts 296°
2026-05-06 19:47 19.89985 68.62092 35835 ft 434 kts 296°
2026-05-06 19:47 19.92702 68.56377 35836 ft 434 kts 296°
2026-05-06 19:48 19.95418 68.50682 35836 ft 434 kts 296°
2026-05-06 19:48 19.98135 68.44963 35841 ft 434 kts 296°
2026-05-06 19:49 20.00855 68.39224 35834 ft 434 kts 296°
2026-05-06 19:49 20.03565 68.33497 35828 ft 434 kts 296°
2026-05-06 19:50 20.06270 68.27768 35832 ft 434 kts 296°
2026-05-06 19:50 20.08957 68.22078 35827 ft 434 kts 296°
2026-05-06 19:51 20.11667 68.16339 35825 ft 434 kts 296°
2026-05-06 19:51 20.14374 68.10609 35825 ft 434 kts 296°
2026-05-06 19:52 20.17075 68.04874 35825 ft 434 kts 296°
2026-05-06 19:52 20.19765 67.99181 35824 ft 433 kts 296°
2026-05-06 19:53 20.22462 67.93441 35822 ft 434 kts 296°
2026-05-06 19:53 20.25157 67.87685 35823 ft 434 kts 296°
2026-05-06 19:54 20.27856 67.81939 35824 ft 434 kts 296°
2026-05-06 19:54 20.30574 67.76199 35826 ft 434 kts 295°
2026-05-06 19:55 20.33468 67.70609 35832 ft 434 kts 297°
2026-05-06 19:55 20.36149 67.64837 35833 ft 434 kts 294°
2026-05-06 19:56 20.38659 67.58993 35831 ft 433 kts 294°
2026-05-06 19:56 20.41252 67.53196 35826 ft 433 kts 295°
2026-05-06 19:57 20.43925 67.47485 35830 ft 433 kts 296°
2026-05-06 19:57 20.46635 67.41737 35829 ft 434 kts 296°
2026-05-06 19:58 20.49325 67.35974 35832 ft 434 kts 296°
2026-05-06 19:58 20.51999 67.30216 35834 ft 433 kts 296°
2026-05-06 19:59 20.54670 67.24456 35834 ft 433 kts 296°
2026-05-06 19:59 20.57326 67.18725 35834 ft 433 kts 296°
2026-05-06 20:00 20.59993 67.12969 35835 ft 433 kts 296°
2026-05-06 20:00 20.62661 67.07208 35835 ft 433 kts 296°
2026-05-06 20:01 20.65313 67.01483 35837 ft 433 kts 295°
2026-05-06 20:01 20.67975 66.95713 35836 ft 433 kts 295°
2026-05-06 20:02 20.70640 66.89930 35837 ft 433 kts 295°
2026-05-06 20:02 20.73299 66.84159 35837 ft 433 kts 295°
2026-05-06 20:03 20.75941 66.78429 35839 ft 433 kts 295°
2026-05-06 20:03 20.78593 66.72661 35834 ft 433 kts 295°
2026-05-06 20:04 20.81245 66.66882 35834 ft 432 kts 295°
2026-05-06 20:04 20.83901 66.61117 35837 ft 432 kts 295°
2026-05-06 20:05 20.86546 66.55348 35836 ft 432 kts 295°
2026-05-06 20:05 20.89171 66.49617 35836 ft 432 kts 295°
2026-05-06 20:06 20.91813 66.43842 35836 ft 431 kts 295°
2026-05-06 20:06 20.94440 66.38078 35832 ft 431 kts 295°
2026-05-06 20:07 20.97071 66.32316 35832 ft 431 kts 295°
2026-05-06 20:07 20.99682 66.26592 35833 ft 431 kts 295°
2026-05-06 20:08 21.02310 66.20813 35834 ft 431 kts 295°
2026-05-06 20:08 21.04933 66.15041 35836 ft 431 kts 295°
2026-05-06 20:09 21.07551 66.09264 35834 ft 431 kts 295°
2026-05-06 20:09 21.10156 66.03527 35835 ft 431 kts 295°
2026-05-06 20:10 21.12788 65.97757 35836 ft 431 kts 295°
2026-05-06 20:10 21.15496 65.92016 35833 ft 431 kts 296°
2026-05-06 20:11 21.18227 65.86296 35834 ft 431 kts 296°
2026-05-06 20:11 21.20940 65.80568 35830 ft 431 kts 296°
2026-05-06 20:12 21.23613 65.74868 35832 ft 431 kts 296°
2026-05-06 20:12 21.26298 65.69126 35833 ft 431 kts 296°
2026-05-06 20:13 21.28989 65.63379 35830 ft 431 kts 296°
2026-05-06 20:13 21.31680 65.57644 35826 ft 431 kts 296°
2026-05-06 20:14 21.34357 65.51946 35825 ft 431 kts 296°
2026-05-06 20:14 21.37042 65.46205 35824 ft 431 kts 296°
2026-05-06 20:15 21.39720 65.40461 35827 ft 431 kts 296°
2026-05-06 20:15 21.42402 65.34707 35822 ft 430 kts 296°
2026-05-06 20:16 21.45061 65.29001 35823 ft 430 kts 296°
2026-05-06 20:16 21.47738 65.23253 35818 ft 430 kts 296°
2026-05-06 20:17 21.50408 65.17506 35817 ft 430 kts 296°
2026-05-06 20:17 21.53071 65.11756 35816 ft 430 kts 296°
2026-05-06 20:18 21.55728 65.06048 35815 ft 430 kts 296°
2026-05-06 20:18 21.58405 65.00292 35816 ft 430 kts 296°
2026-05-06 20:19 21.61069 64.94543 35817 ft 430 kts 296°
2026-05-06 20:19 21.63723 64.88786 35812 ft 430 kts 296°
2026-05-06 20:20 21.66365 64.83065 35815 ft 430 kts 296°
2026-05-06 20:20 21.69034 64.77294 35814 ft 430 kts 296°
2026-05-06 20:21 21.71689 64.71527 35815 ft 430 kts 296°
2026-05-06 20:21 21.74335 64.65752 35816 ft 431 kts 296°
2026-05-06 20:22 21.76971 64.60018 35812 ft 431 kts 296°
2026-05-06 20:22 21.79630 64.54239 35814 ft 430 kts 296°
2026-05-06 20:23 21.82277 64.48463 35813 ft 431 kts 296°
2026-05-06 20:23 21.84933 64.42683 35813 ft 431 kts 296°
2026-05-06 20:24 21.87560 64.36937 35815 ft 431 kts 296°
2026-05-06 20:24 21.90208 64.31148 35810 ft 431 kts 296°
2026-05-06 20:25 21.92857 64.25362 35812 ft 431 kts 296°
2026-05-06 20:25 21.95504 64.19562 35813 ft 431 kts 296°
2026-05-06 20:26 21.98141 64.13767 35815 ft 431 kts 296°
2026-05-06 20:26 22.00758 64.08004 35816 ft 431 kts 296°
2026-05-06 20:27 22.03397 64.02201 35820 ft 431 kts 296°
2026-05-06 20:27 22.06046 63.96389 35821 ft 431 kts 296°
2026-05-06 20:28 22.08682 63.90581 35822 ft 431 kts 296°
2026-05-06 20:28 22.11295 63.84808 35817 ft 431 kts 296°
2026-05-06 20:29 22.13925 63.78994 35818 ft 432 kts 296°
2026-05-06 20:29 22.16558 63.73168 35821 ft 431 kts 296°
2026-05-06 20:30 22.20495 63.64442 35820 ft 432 kts 296°
2026-05-06 20:31 22.23107 63.58649 35818 ft 432 kts 295°
2026-05-06 20:31 22.25730 63.52822 35821 ft 432 kts 296°
2026-05-06 20:32 22.28356 63.46993 35816 ft 432 kts 296°
2026-05-06 20:32 22.30980 63.41166 35818 ft 431 kts 295°
2026-05-06 20:33 22.33576 63.35363 35819 ft 432 kts 295°
2026-05-06 20:33 22.36187 63.29525 35818 ft 432 kts 295°
2026-05-06 20:34 22.38803 63.23686 35819 ft 432 kts 295°
2026-05-06 20:34 22.41419 63.17846 35821 ft 432 kts 295°
2026-05-06 20:35 22.44010 63.12031 35821 ft 432 kts 295°
2026-05-06 20:35 22.46454 63.06109 35816 ft 431 kts 292°
2026-05-06 20:36 22.48741 63.00119 35813 ft 431 kts 292°
2026-05-06 20:36 22.51021 62.94129 35811 ft 431 kts 292°
2026-05-06 20:37 22.53342 62.88157 35811 ft 431 kts 292°
2026-05-06 20:37 22.55674 62.82223 35811 ft 431 kts 292°
2026-05-06 20:38 22.58000 62.76247 35812 ft 431 kts 292°
2026-05-06 20:38 22.60314 62.70270 35809 ft 430 kts 292°
2026-05-06 20:39 22.62630 62.64299 35809 ft 430 kts 292°
2026-05-06 20:39 22.64931 62.58355 35807 ft 430 kts 292°
2026-05-06 20:40 22.67244 62.52382 35808 ft 430 kts 292°
2026-05-06 20:40 22.69556 62.46407 35806 ft 430 kts 292°
2026-05-06 20:41 22.71861 62.40433 35803 ft 430 kts 292°
2026-05-06 20:41 22.74152 62.34489 35806 ft 430 kts 292°
2026-05-06 20:42 22.76450 62.28520 35803 ft 430 kts 292°
2026-05-06 20:42 22.78742 62.22550 35804 ft 429 kts 292°
2026-05-06 20:43 22.81020 62.16612 35800 ft 429 kts 292°
2026-05-06 20:43 22.83307 62.10644 35798 ft 429 kts 292°
2026-05-06 20:44 22.85599 62.04676 35797 ft 429 kts 292°
2026-05-06 20:44 22.87886 61.98703 35799 ft 429 kts 292°
2026-05-06 20:45 22.90161 61.92730 35797 ft 429 kts 292°
2026-05-06 20:45 22.92425 61.86794 35798 ft 429 kts 292°
2026-05-06 20:46 22.94708 61.80805 35799 ft 429 kts 292°
2026-05-06 20:46 22.96983 61.74819 35799 ft 429 kts 292°
2026-05-06 20:47 22.99254 61.68831 35803 ft 429 kts 291°
2026-05-06 20:47 23.01524 61.62839 35799 ft 429 kts 292°
2026-05-06 20:48 23.03787 61.56882 35801 ft 429 kts 292°
2026-05-06 20:48 23.06055 61.50895 35799 ft 429 kts 291°
2026-05-06 20:49 23.08317 61.44904 35800 ft 429 kts 291°
2026-05-06 20:49 23.10572 61.38910 35800 ft 429 kts 291°
2026-05-06 20:50 23.12817 61.32947 35796 ft 429 kts 291°
2026-05-06 20:50 23.15074 61.26954 35797 ft 429 kts 291°
2026-05-06 20:51 23.17336 61.20963 35797 ft 429 kts 291°
2026-05-06 20:51 23.19587 61.14964 35796 ft 429 kts 291°
2026-05-06 20:52 23.21821 61.08993 35795 ft 429 kts 291°
2026-05-06 20:52 23.24069 61.02991 35796 ft 429 kts 291°
2026-05-06 20:53 23.26314 60.96984 35794 ft 429 kts 291°
2026-05-06 20:53 23.27830 60.92914 35797 ft 429 kts 291°
2026-05-06 20:54 23.30074 60.86902 35796 ft 429 kts 291°
2026-05-06 20:54 23.32306 60.80920 35795 ft 429 kts 291°
2026-05-06 20:55 23.34541 60.74906 35795 ft 429 kts 291°
2026-05-06 20:55 23.36773 60.68888 35793 ft 429 kts 291°
2026-05-06 20:56 23.39009 60.62871 35793 ft 429 kts 291°
2026-05-06 20:56 23.41226 60.56838 35789 ft 429 kts 290°
2026-05-06 20:57 23.43406 60.50845 35790 ft 429 kts 290°
2026-05-06 20:57 23.45618 60.44814 35789 ft 429 kts 291°
2026-05-06 20:58 23.47827 60.38780 35790 ft 429 kts 290°
2026-05-06 20:58 23.50022 60.32737 35789 ft 429 kts 290°
2026-05-06 20:59 23.52216 60.26691 35789 ft 429 kts 290°
2026-05-06 20:59 23.54404 60.20676 35790 ft 429 kts 290°
2026-05-06 21:00 23.56602 60.14631 35792 ft 429 kts 290°